Regional Weather Roundup
Issued by NWS

Home | Current Version | Previous Version | Text Only | Print | Product List | Glossary On
Versions: 1 2 3 4 5 6 7 8 9 10 11 12 13 14 15 16 17 18 19 20 21 22 23 24 25 26 27 28 29 30 31 32 33 34 35 36 37 38 39 40 41 42 43 44 45 46 47 48 49 50
000
ASUS43 KIND 071559
RWRIN

WEATHER ROUNDUP FOR INDIANA
NATIONAL WEATHER SERVICE INDIANAPOLIS IN
1200 PM EDT TUE JUL 07 2015

NOTE: "FAIR" INDICATES FEW OR NO CLOUDS BELOW 12,000 FEET WITH NO
SIGNIFICANT WEATHER AND/OR OBSTRUCTIONS TO VISIBILITY.

* - STATION DOES NOT REPORT WEATHER SUCH AS PRECIPITATION OR FOG.

+ - STATION NOT QUALITY CONTROLLED BY THE NATIONAL WEATHER SERVICE.
    USE DATA WITH CAUTION...ESPECIALLY DEWPOINT AND RELATIVE
    HUMIDITY OBSERVATIONS.

INZ001>003-010>013-019-020-071700-
NORTHWEST INDIANA

CITY           SKY/WX    TMP DP  RH WIND       PRES   REMARKS
GARY /AIRPORT/ CLOUDY    61  55  82 N14G30    30.00R
KNOX *+        CLOUDY    59  59 100 N13       29.95R
MONTICELLO +   DRIZZLE   63  63  99 N14       29.93R
RENSSELAER +   CLOUDY    61  59  94 N9        29.96R

$$

LMZ046-743>745-071700-
SOUTHERN LAKE MICHIGAN

STATION/POSITION TIME  TEMP    WIND        PRES    WAVE
                       AIR SEA DIR/SP/G            HT
                 (UTC) (F)     (DEG/KT/KT) (MB)    (FT)
BURNS HARBOR     1500   59     360/ 17/ 22 1015.6R
MICHIGAN CITY    1500   60     350/ 25/ 29   N/A
5NW MICH CITY    1500   60 65  360/ 17/ 23   N/A     7

$$

INZ004-005-014>016-021>024-071700-
NORTH CENTRAL INDIANA

CITY           SKY/WX    TMP DP  RH WIND       PRES   REMARKS
GOSHEN         LGT RAIN  65  62  90 NW12      29.92R FOG
SOUTH BEND     CLOUDY    62  61  96 N9        29.95R

$$

INZ006>009-017-018-025>027-071700-
NORTHEAST INDIANA

CITY           SKY/WX    TMP DP  RH WIND       PRES   REMARKS
ANGOLA *+      PTSUNNY   73  64  73 W7        29.89S
FORT WAYNE     LGT RAIN  74  71  91 SW9       29.91S

$$

INZ028-029-035-036-043>045-051>053-071700-
WEST CENTRAL INDIANA

CITY           SKY/WX    TMP DP  RH WIND       PRES   REMARKS
CRAWFORDSVL +  LGT RAIN  72  69  89 CALM      29.90F
GREENCASTLE +  LGT RAIN  68  64  88 CALM      29.92R VSB 1/2
LAFAYETTE      LGT RAIN  64  63  96 N14       29.92R FOG
TERRE HAUTE    CLOUDY    79  74  84 SW8       29.90F

$$

INZ030>032-037>040-046>048-054>057-064-065-071700-
CENTRAL INDIANA

CITY           SKY/WX    TMP DP  RH WIND       PRES   REMARKS
ANDERSON       LGT RAIN  77  68  73 S12       29.92F
FRANKFORT +    RAIN     N/A N/A N/A MISG      29.93S
GREENWOOD *+   PTSUNNY   77  70  78 S10       29.91F
INDIANAPOLIS   CLOUDY    77  72  84 S13       29.90F
-EAGLE CREEK   CLOUDY    78  73  84 S9G20     29.89F
KOKOMO *+      CLOUDY    73  70  88 W7        29.91S
MT COMFORT *+  CLOUDY    75 N/A N/A S12G21    29.91F
SHELBYVILLE    PTSUNNY   81  72  74 S21       29.91F

$$

INZ033-034-041-042-049-050-058-059-071700-
EAST CENTRAL INDIANA

CITY           SKY/WX    TMP DP  RH WIND       PRES   REMARKS
MUNCIE         CLOUDY    79  72  79 S12G21    29.91S

$$

INZ060-061-067>069-081>083-085>088-071700-
SOUTHWEST INDIANA

CITY           SKY/WX    TMP DP  RH WIND       PRES   REMARKS
EVANSVILLE     CLOUDY    78  74  87 SW14      29.97S FOG
HUNTINGBURG *+ CLOUDY    75  70  83 SW7       29.98S

$$

INZ062-063-066-070>080-084-089>092-071700-
SOUTH CENTRAL AND SOUTHEAST INDIANA

CITY           SKY/WX    TMP DP  RH WIND       PRES   REMARKS
BLOOMINGTON    CLOUDY    74  72  93 S9        29.94S
MADISON *+     CLOUDY    75  72  88 S8        30.00F
SEYMOUR +      CLOUDY    77  73  88 SW13G18   29.95F

$$




USA.gov is the U.S. government's official web portal to all federal, state and local government web resources and services.